This is the latest recevied weather packets stored in our database for station/object KC9DRE. If no packets are shown the sender has not sent any weather packets the latest 10 day(s).
| Time | Temp. | Humidity | Pressure | Rain* | Wind** | Luminosity | Snow |
|---|---|---|---|---|---|---|---|
| 1788131940 | 28.89° C | 69% | 1018.1 hPa | 0 mm | - | 43 W/m² | - |
| 1788131634 | 28.89° C | 69% | 1018.2 hPa | 0 mm | - | 46 W/m² | - |
| 1788131334 | 29.44° C | 66% | 1018.1 hPa | 0 mm | - | 48 W/m² | - |
| 1788131029 | 30° C | 64% | 1018 hPa | 0 mm | - | 50 W/m² | - |
| 1788130729 | 30.56° C | 63% | 1018.3 hPa | 0 mm | - | 52 W/m² | - |
| 1788130424 | 31.67° C | 60% | 1018 hPa | 0 mm | - | 55 W/m² | - |
| 1788130119 | 32.78° C | 57% | 1018 hPa | 0 mm | - | 55 W/m² | - |
| 1788129812 | 32.78° C | 52% | 1018 hPa | 0 mm | - | 115 W/m² | - |
| 1788129509 | 33.33° C | 52% | 1018.1 hPa | 0 mm | - | 139 W/m² | - |
| 1788129206 | 33.33° C | 50% | 1017.9 hPa | 0 mm | - | 152 W/m² | - |
| 1788128905 | 33.89° C | 50% | 1018 hPa | 0 mm | - | 165 W/m² | - |
| 1788128600 | 33.89° C | 49% | 1018 hPa | 0 mm | - | 178 W/m² | - |
| 1788128295 | 33.33° C | 51% | 1018 hPa | 0 mm | - | 186 W/m² | - |
| 1788127993 | 33.89° C | 47% | 1018.1 hPa | 0 mm | - | 193 W/m² | - |
| 1788127692 | 34.44° C | 46% | 1018.2 hPa | 0 mm | - | 229 W/m² | - |
| 1788127392 | 34.44° C | 47% | 1018.2 hPa | 0 mm | - | 249 W/m² | - |
| 1788127090 | 34.44° C | 47% | 1018 hPa | 0 mm | - | 269 W/m² | - |
| 1788126785 | 34.44° C | 48% | 1018.2 hPa | 0 mm | - | 292 W/m² | - |
| 1788126480 | 33.89° C | 48% | 1018.2 hPa | 0 mm | - | 311 W/m² | - |
| 1788126174 | 33.89° C | 47% | 1018.3 hPa | 0 mm | - | 321 W/m² | - |
| 1788125874 | 33.89° C | 52% | 1018.4 hPa | 0 mm | - | 301 W/m² | - |
| 1788125569 | 33.89° C | 50% | 1018.6 hPa | 0 mm | - | 320 W/m² | - |
| 1788125265 | 33.89° C | 48% | 1018.5 hPa | 0 mm | - | 252 W/m² | - |
| 1788124961 | 34.44° C | 49% | 1018.5 hPa | 0 mm | - | 315 W/m² | - |
| 1788124660 | 35° C | 48% | 1018.8 hPa | 0 mm | - | 371 W/m² | - |
* Rain latest hour (hover to see other rain measurements)
** Current wind speed in m/s (hover to see current wind gust speed)